K5TWC Weather Reports


time (UTC)temp
F
wind
direction
speed
knots
gust
knots
rain 1hr
in
rain 24hr
in
rain mn
in
humidity
%
barometer
mb
20260903200516 91 173 4.3 13.0 0.00 0.04 0.04 64 1013.4
20260903200033 90 134 5.2 13.0 0.00 0.04 0.04 64 1013.4
20260903195505 90 127 5.2 10.4 0.00 0.04 0.04 64 1013.3
20260903195006 90 153 2.6 11.3 0.00 0.04 0.04 66 1013.3
20260903194533 89 179 2.6 11.3 0.00 0.04 0.04 66 1013.4
20260903194009 89 120 2.6 12.2 0.00 0.04 0.04 66 1013.4
20260903193509 89 146 5.2 12.2 0.00 0.04 0.04 66 1013.4
20260903193026 89 161 3.5 12.2 0.00 0.04 0.04 66 1013.4
20260903192515 89 146 4.3 13.9 0.00 0.04 0.04 67 1013.5
20260903192011 89 213 6.1 13.9 0.00 0.04 0.04 67 1013.6
20260903191530 89 225 4.3 13.0 0.00 0.04 0.04 68 1013.7
20260903191012 88 151 7.0 13.9 0.00 0.04 0.04 69 1013.8
20260903190516 87 95 3.5 13.9 0.00 0.04 0.04 70 1013.9
20260903190031 87 150 4.3 12.2 0.00 0.04 0.04 70 1014.0
20260903185515 87 186 1.7 13.0 0.00 0.04 0.04 71 1014.1
20260903185015 86 164 2.6 13.0 0.00 0.04 0.04 72 1014.2
20260903184514 86 147 3.5 10.4 0.00 0.04 0.04 72 1014.3
20260903184006 86 169 3.5 10.4 0.00 0.04 0.04 72 1014.4
20260903183507 86 160 4.3 10.4 0.00 0.04 0.04 73 1014.4
20260903183031 85 164 4.3 8.7 0.00 0.04 0.04 75 1014.4
20260903182512 85 155 3.5 10.4 0.00 0.04 0.04 75 1014.4
20260903182009 84 165 4.3 12.2 0.00 0.04 0.04 76 1014.5
20260903181528 84 178 5.2 13.9 0.00 0.04 0.04 76 1014.5
20260903181009 84 147 4.3 14.8 0.00 0.04 0.04 76 1014.6
20260903180514 84 143 4.3 14.8 0.00 0.04 0.04 76 1014.7
20260903180035 84 200 5.2 12.2 0.00 0.04 0.04 76 1014.7
20260903175515 84 165 3.5 12.2 0.00 0.04 0.04 77 1014.7
20260903175015 83 147 4.3 12.2 0.00 0.04 0.04 78 1014.8
20260903174531 83 175 4.3 12.2 0.00 0.04 0.04 79 1014.8
20260903174016 82 172 2.6 9.6 0.00 0.04 0.04 81 1014.8
20260903173514 82 177 3.5 10.4 0.00 0.04 0.04 81 1014.9
20260903173016 82 169 5.2 13.0 0.00 0.04 0.04 82 1014.9
20260903172508 82 136 7.0 13.0 0.00 0.04 0.04 83 1015.0
20260903172008 81 144 2.6 11.3 0.00 0.04 0.04 83 1014.9
20260903171527 81 138 2.6 10.4 0.00 0.04 0.04 84 1015.0
20260903171010 81 202 2.6 9.6 0.00 0.04 0.04 84 1015.1
20260903170513 81 166 4.3 9.6 0.00 0.04 0.04 85 1015.1
20260903170026 81 187 4.3 13.9 0.00 0.04 0.04 85 1015.1
20260903165514 81 114 2.6 13.9 0.00 0.04 0.04 85 1015.1
20260903165015 80 142 4.3 9.6 0.00 0.04 0.04 86 1015.0
20260903164530 80 96 1.7 9.6 0.00 0.04 0.04 86 1015.0
20260903164016 80 145 3.5 10.4 0.00 0.04 0.04 86 1015.0
20260903163514 80 162 3.5 10.4 0.00 0.04 0.04 87 1015.0
20260903163031 80 129 3.5 9.6 0.00 0.04 0.04 87 1015.0
20260903162514 80 135 4.3 8.7 0.00 0.04 0.04 87 1014.9
20260903162016 80 149 2.6 9.6 0.00 0.04 0.04 88 1014.9
20260903161524 80 148 1.7 9.6 0.00 0.04 0.04 88 1014.8
20260903161010 79 132 3.5 9.6 0.00 0.04 0.04 88 1014.8
20260903160510 79 122 3.5 10.4 0.00 0.04 0.04 89 1014.8
20260903160033 79 146 2.6 10.4 0.00 0.04 0.04 89 1014.8
20260903155510 79 157 2.6 9.6 0.00 0.04 0.04 90 1014.8
20260903155021 79 144 2.6 7.8 0.00 0.04 0.04 91 1014.7
20260903154530 79 159 0.9 12.2 0.00 0.04 0.04 91 1014.7
20260903154016 79 146 4.3 12.2 0.00 0.04 0.04 91 1014.7
20260903153515 79 121 3.5 12.2 0.00 0.04 0.04 91 1014.6
20260903153030 79 151 2.6 12.2 0.00 0.04 0.04 91 1014.6
20260903152514 79 109 1.7 10.4 0.00 0.04 0.04 91 1014.5
20260903152021 79 138 1.7 7.8 0.00 0.04 0.04 91 1014.6
20260903151535 79 153 0.9 8.7 0.00 0.04 0.04 91 1014.6
20260903151015 79 163 3.5 8.7 0.00 0.04 0.04 91 1014.6
20260903150514 79 168 0.0 9.6 0.00 0.04 0.04 91 1014.6
20260903150021 79 165 4.3 9.6 0.00 0.04 0.04 91 1014.6
20260903145508 79 166 3.5 9.6 0.00 0.04 0.04 91 1014.6
20260903145010 79 166 0.9 8.7 0.00 0.04 0.04 92 1014.6
20260903144527 79 200 2.6 8.7 0.00 0.04 0.04 92 1014.6
20260903144014 79 156 1.7 7.0 0.00 0.04 0.04 93 1014.6
20260903143513 79 166 0.9 7.0 0.00 0.04 0.04 93 1014.7
20260903143036 79 148 0.9 7.0 0.00 0.04 0.04 93 1014.7
20260903142516 79 152 0.9 7.8 0.00 0.04 0.04 93 1014.6
20260903142021 78 147 0.9 7.8 0.00 0.04 0.04 93 1014.7
20260903141528 78 150 3.5 7.8 0.00 0.04 0.04 93 1014.8
20260903140506 78 166 0.9 7.8 0.00 0.04 0.04 94 1014.9
20260903140018 78 167 2.6 7.8 0.00 0.04 0.04 94 1014.9
20260903135508 78 172 1.7 12.2 0.00 0.04 0.04 94 1014.9
20260903135010 78 185 2.6 12.2 0.00 0.04 0.04 94 1014.8
20260903134527 78 163 0.0 7.0 0.00 0.04 0.04 94 1014.7
20260903134010 78 165 2.6 7.8 0.00 0.04 0.04 94 1014.6
20260903133510 78 155 2.6 10.4 0.00 0.04 0.04 94 1014.7
20260903133004 78 161 2.6 10.4 0.00 0.04 0.04 94 1014.7
20260903132504 78 157 2.6 8.7 0.00 0.04 0.04 94 1014.6
20260903132003 78 155 1.7 7.8 0.01 0.04 0.04 94 1014.6
20260903131515 77 178 0.9 8.7 0.01 0.04 0.04 94 1014.6
20260903131004 77 193 2.6 8.7 0.01 0.04 0.04 94 1014.6
20260903130503 77 143 2.6 8.7 0.02 0.04 0.04 94 1014.5
20260903130013 77 178 0.9 6.1 0.03 0.04 0.04 94 1014.5
20260903125504 77 180 0.9 5.2 0.04 0.04 0.04 94 1014.4
20260903125006 77 209 0.0 6.1 0.04 0.04 0.04 94 1014.3
20260903124533 77 182 1.7 6.1 0.04 0.04 0.04 94 1014.2
20260903124008 77 194 0.0 8.7 0.04 0.04 0.04 94 1014.2
20260903123511 77 202 3.5 8.7 0.04 0.04 0.04 93 1014.2
20260903123024 77 133 1.7 7.0 0.04 0.04 0.04 93 1014.2
20260903122512 77 160 0.9 7.8 0.04 0.04 0.04 93 1014.1
20260903122012 77 165 0.9 9.6 0.03 0.03 0.03 93 1014.0
20260903121505 77 160 4.3 9.6 0.03 0.03 0.03 92 1014.0
20260903121003 77 149 1.7 7.8 0.03 0.03 0.03 92 1014.2
20260903120505 77 149 1.7 9.6 0.02 0.02 0.02 92 1014.2
20260903120010 77 156 3.5 9.6 0.01 0.01 0.01 92 1014.1
20260903115504 77 163 2.6 8.7 0.00 0.00 0.00 92 1014.1
20260903115004 77 146 3.5 8.7 0.00 0.00 0.00 92 1014.1
20260903114519 77 134 0.9 9.6 0.00 0.00 0.00 92 1014.0
20260903114006 77 167 1.7 9.6 0.00 0.00 0.00 92 1014.0
20260903113510 77 135 1.7 7.8 0.00 0.00 0.00 92 1013.8
20260903113023 77 148 0.0 4.3 0.00 0.00 0.00 92 1013.8
20260903112512 77 145 0.0 4.3 0.00 0.00 0.00 92 1013.9
20260903112012 77 182 0.0 2.6 0.00 0.00 0.00 92 1013.9
20260903111525 77 183 0.0 2.6 0.00 0.00 0.00 92 1014.0
20260903111013 77 182 0.0 6.1 0.00 0.00 0.00 92 1013.8
20260903110517 77 168 0.9 6.1 0.00 0.00 0.00 92 1013.8
20260903110008 77 196 0.0 6.1 0.00 0.00 0.00 92 1013.9
20260903105504 77 142 0.0 6.1 0.00 0.00 0.00 92 1014.0
20260903105004 77 163 1.7 6.1 0.00 0.00 0.00 92 1013.8
20260903104511 77 157 0.0 11.3 0.00 0.00 0.00 92 1013.7
20260903104004 77 136 1.7 11.3 0.00 0.00 0.00 92 1013.7
20260903103508 77 146 1.7 9.6 0.00 0.00 0.00 92 1013.6
20260903103016 77 146 2.6 9.6 0.00 0.00 0.00 92 1013.6
20260903102509 77 159 0.9 7.0 0.00 0.00 0.00 92 1013.6
20260903102009 76 168 0.9 7.0 0.00 0.00 0.00 92 1013.6
20260903101530 76 157 0.0 6.1 0.00 0.00 0.00 92 1013.7
20260903101011 76 192 0.0 5.2 0.00 0.00 0.00 92 1013.6
20260903100512 76 157 0.9 5.2 0.00 0.00 0.00 92 1013.6
20260903100032 76 148 0.0 5.2 0.00 0.00 0.00 93 1013.6
20260903095514 76 173 0.0 4.3 0.00 0.00 0.00 93 1013.6
20260903095021 76 178 0.0 4.3 0.00 0.00 0.00 93 1013.7
20260903094510 76 169 0.0 3.5 0.00 0.00 0.00 93 1013.7
20260903094006 76 165 0.0 4.3 0.00 0.00 0.00 93 1013.7
20260903093504 76 165 0.0 6.1 0.00 0.00 0.00 93 1013.7
20260903093013 76 164 0.9 7.0 0.00 0.00 0.00 92 1013.6
20260903092507 76 162 0.0 7.0 0.00 0.00 0.00 92 1013.7
20260903092009 76 137 0.0 7.0 0.00 0.00 0.00 92 1013.8
20260903091521 76 182 0.0 5.2 0.00 0.00 0.00 92 1013.8
20260903091009 76 200 0.0 3.5 0.00 0.00 0.00 93 1013.7
20260903090510 76 203 0.0 3.5 0.00 0.00 0.00 93 1013.7
20260903090028 76 198 0.0 3.5 0.00 0.00 0.00 93 1013.5
20260903085512 76 199 0.0 3.5 0.00 0.00 0.00 93 1013.5
20260903085015 77 217 0.0 6.1 0.00 0.00 0.00 93 1013.4
20260903084530 77 220 0.0 7.0 0.00 0.00 0.00 93 1013.4
20260903084017 77 161 0.9 7.0 0.00 0.00 0.00 93 1013.3
20260903083504 77 188 0.0 7.0 0.00 0.00 0.00 94 1013.3
20260903083012 77 169 0.0 7.0 0.00 0.00 0.00 94 1013.2
20260903082503 76 162 0.9 9.6 0.00 0.00 0.00 94 1013.2
20260903082007 76 163 0.9 9.6 0.00 0.00 0.00 93 1013.2
20260903081514 76 167 0.0 7.8 0.00 0.00 0.00 93 1013.3
20260903081008 76 114 2.6 9.6 0.00 0.00 0.00 93 1013.3
20260903080508 76 125 5.2 11.3 0.00 0.00 0.00 93 1013.3
20260903080023 76 110 3.5 11.3 0.00 0.00 0.00 93 1013.3
20260903075510 76 131 5.2 11.3 0.00 0.00 0.00 93 1013.3
20260903075012 76 122 3.5 10.4 0.00 0.00 0.00 92 1013.2
20260903074527 76 110 4.3 9.6 0.00 0.00 0.00 92 1013.2
20260903074012 76 121 4.3 8.7 0.00 0.00 0.00 92 1013.2
20260903073516 76 128 3.5 8.7 0.00 0.00 0.00 92 1013.2
20260903073043 76 94 4.3 9.6 0.00 0.00 0.00 91 1013.2
20260903072513 76 115 5.2 9.6 0.00 0.00 0.00 90 1013.3
20260903072004 77 125 4.3 9.6 0.00 0.00 0.00 89 1013.4
20260903071510 77 116 4.3 9.6 0.00 0.00 0.00 88 1013.4
20260903071006 78 122 5.2 12.2 0.00 0.00 0.00 87 1013.5
20260903070507 78 121 5.2 12.2 0.00 0.00 0.00 86 1013.6
20260903070016 79 107 7.0 15.6 0.00 0.00 0.00 84 1013.7
20260903065508 79 123 8.7 15.6 0.00 0.00 0.00 83 1013.6
20260903065012 80 124 5.2 9.6 0.00 0.00 0.00 82 1013.5
20260903064526 80 119 3.5 9.6 0.00 0.00 0.00 81 1013.5
20260903064012 80 90 4.3 9.6 0.00 0.00 0.00 81 1013.5
20260903063504 80 107 2.6 8.7 0.00 0.00 0.00 81 1013.5
20260903063004 80 104 4.3 8.7 0.00 0.00 0.00 80 1013.3
20260903062503 81 120 3.5 7.8 0.00 0.00 0.00 80 1013.4
20260903062003 81 124 2.6 7.8 0.00 0.00 0.00 80 1013.4
20260903061512 81 69 3.5 7.8 0.00 0.00 0.00 79 1013.4
20260903061005 81 117 1.7 10.4 0.00 0.00 0.00 79 1013.5
20260903060507 81 136 4.3 10.4 0.00 0.00 0.00 79 1013.5
20260903060018 81 132 5.2 11.3 0.00 0.00 0.00 79 1013.6
20260903055509 81 123 3.5 11.3 0.00 0.00 0.00 79 1013.6
20260903055006 81 110 5.2 11.3 0.00 0.00 0.00 79 1013.7
20260903054523 81 127 6.1 11.3 0.00 0.00 0.00 79 1013.9
20260903054013 81 123 6.1 13.0 0.00 0.00 0.00 79 1013.8
20260903053512 81 120 7.8 13.0 0.00 0.00 0.00 78 1013.8
20260903053027 81 111 3.5 9.6 0.00 0.00 0.00 78 1013.9
20260903052512 81 121 3.5 11.3 0.00 0.00 0.00 78 1014.0
20260903052004 81 122 7.0 13.0 0.00 0.00 0.00 78 1014.0
20260903051506 81 123 6.1 13.9 0.00 0.00 0.00 78 1014.1
20260903051008 81 132 7.8 13.9 0.00 0.00 0.00 77 1014.1
20260903050506 81 98 3.5 8.7 0.00 0.00 0.00 77 1014.2
20260903050012 81 109 1.7 8.7 0.00 0.00 0.00 76 1014.3
20260903045508 81 121 3.5 8.7 0.00 0.00 0.00 76 1014.4
20260903045005 81 97 3.5 8.7 0.00 0.00 0.00 76 1014.4
20260903044518 82 123 0.9 12.2 0.00 0.00 0.00 75 1014.4
20260903044008 82 113 5.2 12.2 0.00 0.00 0.00 75 1014.3
20260903043508 82 107 3.5 12.2 0.00 0.00 0.00 75 1014.4
20260903043023 82 119 6.1 12.2 0.00 0.00 0.00 74 1014.3
20260903042510 82 121 4.3 11.3 0.00 0.00 0.00 74 1014.3
20260903042015 82 117 5.2 12.2 0.00 0.00 0.00 74 1014.3
20260903041529 82 98 7.0 12.2 0.00 0.00 0.00 73 1014.4
20260903041015 83 120 5.2 10.4 0.00 0.00 0.00 73 1014.4
20260903040504 83 134 6.1 10.4 0.00 0.00 0.00 73 1014.3
20260903040009 83 123 4.3 13.9 0.00 0.00 0.00 72 1014.4
20260903035503 83 116 5.2 13.9 0.00 0.00 0.00 72 1014.3
20260903035004 84 127 5.2 13.9 0.00 0.00 0.00 71 1014.3
20260903034519 84 126 5.2 11.3 0.00 0.00 0.00 71 1014.3
20260903034008 84 122 6.1 8.7 0.00 0.00 0.00 70 1014.3
20260903033509 84 113 5.2 9.6 0.00 0.00 0.00 70 1014.2
20260903033018 84 139 4.3 9.6 0.00 0.00 0.00 70 1014.2
20260903032511 84 126 1.7 9.6 0.00 0.00 0.00 69 1014.2
20260903032010 85 123 2.6 10.4 0.00 0.00 0.00 69 1014.1
20260903031528 85 131 4.3 10.4 0.00 0.00 0.00 68 1014.2
20260903031013 85 127 4.3 11.3 0.00 0.00 0.00 68 1014.1
20260903030514 85 115 7.0 11.3 0.00 0.00 0.00 67 1014.2
20260903030031 85 123 5.2 10.4 0.00 0.00 0.00 67 1014.1
20260903025514 86 126 3.5 10.4 0.00 0.00 0.00 66 1014.1
20260903025005 86 161 2.6 10.4 0.00 0.00 0.00 66 1014.1
20260903024511 86 139 1.7 9.6 0.00 0.00 0.00 66 1014.1
20260903024003 86 128 0.9 11.3 0.00 0.00 0.00 65 1014.1
20260903023504 86 169 3.5 13.9 0.00 0.00 0.00 65 1014.0
20260903023014 86 117 7.0 13.9 0.00 0.00 0.00 64 1014.0
20260903022508 87 121 5.2 13.0 0.00 0.00 0.00 64 1013.9
20260903022010 87 116 5.2 13.0 0.00 0.00 0.00 64 1013.8
20260903021523 87 134 6.1 12.2 0.00 0.00 0.00 63 1013.6
20260903021011 88 164 4.3 10.4 0.00 0.00 0.00 63 1013.6
20260903020512 88 143 4.3 14.8 0.00 0.00 0.00 62 1013.5
20260903020036 88 137 6.1 14.8 0.00 0.00 0.00 62 1013.3
20260903015514 89 115 6.1 13.0 0.00 0.00 0.00 61 1013.3
20260903015014 89 134 5.2 13.0 0.00 0.00 0.00 60 1013.2
20260903014529 90 130 3.5 11.3 0.00 0.00 0.00 60 1013.0
20260903014015 90 159 6.1 11.3 0.00 0.00 0.00 59 1012.9
20260903013504 90 139 3.5 11.3 0.00 0.00 0.00 58 1012.9
20260903013016 91 134 2.6 11.3 0.00 0.00 0.00 57 1012.7
20260903012503 91 129 6.1 14.8 0.00 0.00 0.00 56 1012.7
20260903012007 91 124 6.1 14.8 0.00 0.00 0.00 56 1012.5
20260903011518 91 117 3.5 13.9 0.00 0.00 0.00 55 1012.5
20260903011007 91 123 5.2 13.9 0.00 0.00 0.00 54 1012.5
20260903010511 92 116 6.1 11.3 0.00 0.00 0.00 54 1012.4
20260903010025 92 119 3.5 11.3 0.00 0.00 0.00 54 1012.4
20260903005511 92 112 4.3 10.4 0.00 0.00 0.00 54 1012.4
20260903005013 92 101 3.5 11.3 0.00 0.00 0.00 54 1012.4
20260903004533 92 129 6.1 11.3 0.00 0.00 0.00 53 1012.4
20260903004012 93 151 4.3 17.4 0.00 0.00 0.00 53 1012.4
20260903003513 93 113 5.2 17.4 0.00 0.00 0.00 53 1012.3
20260903003030 93 107 5.2 12.2 0.00 0.00 0.00 53 1012.3
20260903002519 93 115 7.0 12.2 0.00 0.00 0.00 53 1012.2
20260903002004 94 119 3.5 13.0 0.00 0.00 0.00 53 1012.1
20260903001515 94 118 7.8 13.0 0.00 0.00 0.00 52 1012.1
20260903001008 94 128 6.1 11.3 0.00 0.00 0.00 52 1012.1
20260903000507 94 119 2.6 11.3 0.00 0.00 0.00 52 1012.1
20260903000022 94 102 4.3 11.3 0.00 0.00 0.00 52 1012.2
20260902235513 94 132 3.5 7.8 0.00 0.00 0.00 52 1012.2
20260902235010 94 123 3.5 12.2 0.00 0.00 0.00 52 1012.1
20260902234528 94 90 5.2 12.2 0.00 0.00 0.00 53 1012.1
20260902234013 94 132 2.6 7.8 0.00 0.00 0.00 53 1012.0
20260902233512 94 118 0.9 8.7 0.00 0.00 0.00 53 1012.0
20260902233027 94 123 0.9 9.6 0.00 0.00 0.00 53 1012.0
20260902232514 94 114 4.3 9.6 0.00 0.00 0.00 53 1012.0
20260902232016 94 90 1.7 7.8 0.00 0.00 0.00 54 1012.0
20260902231530 93 106 2.6 7.0 0.00 0.00 0.00 55 1012.0
20260902231019 93 129 2.6 10.4 0.00 0.00 0.00 55 1012.1
20260902230505 93 85 5.2 10.4 0.00 0.00 0.00 55 1012.1
20260902230019 93 80 4.3 8.7 0.00 0.00 0.00 54 1012.1
20260902225508 92 111 1.7 8.7 0.00 0.00 0.00 55 1012.0
20260902225008 92 84 2.6 10.4 0.00 0.00 0.00 55 1012.0
20260902224523 93 92 4.3 11.3 0.00 0.00 0.00 55 1012.0
20260902224012 95 59 5.2 13.0 0.00 0.00 0.00 52 1012.1
20260902223512 97 125 7.0 13.0 0.00 0.00 0.00 49 1012.1
20260902223048 97 98 3.5 9.6 0.00 0.00 0.00 49 1011.9
20260902222514 98 88 2.6 9.6 0.00 0.00 0.00 47 1011.9
20260902222015 99 96 3.5 9.6 0.00 0.00 0.00 46 1011.8
20260902221532 99 91 2.6 9.6 0.00 0.00 0.00 46 1011.8
20260902221015 98 138 4.3 8.7 0.00 0.00 0.00 46 1011.9
20260902220516 98 58 3.5 10.4 0.00 0.00 0.00 46 1011.8
20260902220030 98 123 3.5 10.4 0.00 0.00 0.00 46 1011.9
20260902215515 99 72 4.3 10.4 0.00 0.00 0.00 46 1011.8
20260902215007 99 47 1.7 7.8 0.00 0.00 0.00 46 1012.0
20260902214520 99 94 1.7 11.3 0.00 0.00 0.00 45 1012.0
20260902214009 99 338 3.5 11.3 0.00 0.00 0.00 46 1012.0
20260902213509 99 120 5.2 11.3 0.00 0.00 0.00 46 1012.1
20260902213022 99 84 4.3 8.7 0.00 0.00 0.00 45 1012.1
20260902212513 98 103 2.6 9.6 0.00 0.00 0.00 45 1012.1
20260902212018 98 105 3.5 9.6 0.00 0.00 0.00 45 1012.2
20260902211526 99 84 3.5 9.6 0.00 0.00 0.00 45 1012.2
20260902211014 99 91 0.9 9.6 0.00 0.00 0.00 45 1012.2
20260902210519 99 113 1.7 7.0 0.00 0.00 0.00 46 1012.2
20260902210031 98 86 0.0 7.8 0.00 0.00 0.00 46 1012.3
20260902205515 98 55 1.7 8.7 0.00 0.00 0.00 46 1012.4
20260902205016 98 9 3.5 8.7 0.00 0.00 0.00 46 1012.5
20260902204541 98 93 3.5 8.7 0.00 0.00 0.00 46 1012.5
20260902204019 98 64 2.6 7.8 0.00 0.00 0.00 46 1012.6
20260902203519 98 52 0.9 8.7 0.00 0.00 0.00 45 1012.6
20260902203024 98 59 1.7 8.7 0.00 0.00 0.00 45 1012.8
20260902202511 98 40 1.7 7.0 0.00 0.00 0.00 46 1012.8
20260902202012 98 351 0.9 7.0 0.00 0.00 0.00 47 1012.9
20260902201528 98 61 2.6 8.7 0.00 0.00 0.00 46 1013.0
20260902201012 98 92 0.9 9.6 0.00 0.00 0.00 46 1013.2